Location: *
(50.8160°S, 176.0219°W)
Time: 03:00:26
(UTC+00:00)

Cosmos 1315 Rocket - Pass Details

Date: 19 May 2026
Orbit: 491 x 508 km, 81.2° (Epoch: 8 June)

Event Time Altitude Azimuth Distance (km) Brightness Sun altitude
Rises 18:15:06 0° 314° (NW) 2,630 6.0 -10.1°
Reaches altitude 10° 18:17:36 10° 297° (WNW) 1,753 5.0 -9.7°
Maximum altitude 18:20:38 22° 245° (WSW) 1,196 3.9 -9.2°
Drops below altitude 10° 18:23:41 10° 194° (SSW) 1,773 5.1 -8.8°
Sets 18:26:14 0° 177° (S) 2,668 6.1 -8.4°
